Regional Weather Roundup
Issued by NWS Green Bay, WI

Home | Current Version | Previous Version | Text Only | Print | Product List | Glossary On
Versions: 1 2 3 4 5 6 7 8 9 10 11 12 13 14 15 16 17 18 19 20 21 22 23 24 25 26 27 28 29 30 31 32 33 34 35 36 37 38 39 40 41 42 43 44 45 46 47 48 49 50
000
ASUS43 KGRB 302000
RWRGRB

NORTH-CENTRAL AND NORTHEAST WISCONSIN REGIONAL WEATHER ROUNDUP
NATIONAL WEATHER SERVICE GREEN BAY WI
300 PM CDT FRI SEP 30 2016

WIZ005-009-010>012-018-019-302100-
NORTH CENTRAL WISCONSIN

CITY           SKY/WX    TMP DP  RH WIND       PRES   REMARKS
IRONWOOD       SUNNY     63  56  78 N8        30.35S
MANITOWISH WTR NOT AVBL
ARBOR VITAE    NOT AVBL
EAGLE RIVER    NOT AVBL
LAND O LAKES   NOT AVBL
RHINELANDER    PTSUNNY   67  49  52 NE12      30.29F
PHILLIPS       NOT AVBL
ANTIGO         NOT AVBL
TOMAHAWK       NOT AVBL
MERRILL        NOT AVBL
$$

WIZ013-073-302100-
NORTHEAST WISCONSIN

CITY           SKY/WX    TMP DP  RH WIND       PRES   REMARKS
IRON MOUNTAIN  PTSUNNY   68  49  50 NE8       30.28F
MARINETTE      PTSUNNY   63  55  75 E15       30.26F
$$

WIZ017-030-035>037-045-302100-
CENTRAL WISCONSIN

CITY           SKY/WX    TMP DP  RH WIND       PRES   REMARKS
MEDFORD        NOT AVBL
WAUSAU         MOSUNNY   69  52  54 NE13G21   30.24F
MOSINEE        PTSUNNY   66  54  63 E10G17    30.26F
MARSHFIELD     CLOUDY    70  51  51 E10       30.23F
WISC RAPIDS    CLOUDY    64  56  75 E13       30.25F
STEVENS POINT  NOT AVBL
WAUPACA        NOT AVBL
SHAWANO        NOT AVBL
CLINTONVILLE   NOT AVBL
WAUTOMA        CLOUDY    59  58  96 NE8       30.22F FOG
$$

WIZ038-039-048-051-302100-
FOX VALLEY

CITY           SKY/WX    TMP DP  RH WIND       PRES   REMARKS
NWS GREEN BAY  CLOUDY    63  59  87 NE17G25   30.23F
APPLETON       CLOUDY    61  59  94 NE14      30.21F
OSHKOSH        CLOUDY    61  57  87 NE9       30.20F
FOND DU LAC    CLOUDY    62  58  86 NE9       30.19F
$$

WIZ022-050-052-302100-
EAST CENTRAL WISCONSIN

CITY           SKY/WX    TMP DP  RH WIND       PRES   REMARKS
EPHRAIM        NOT AVBL
WASHINGTON ISL NOT AVBL
STURGEON BAY   CLOUDY    62  57  83 NE15      30.24F
MANITOWOC      NOT AVBL
SHEBOYGAN      CLOUDY    62  57  83 NE18G24   30.19F
$$

LMZ563-521-522-541>543-302100-
LAKESHORE

STATION/POSITION TIME  TEMP    WIND        PRES    VSBY  WAVE
                       AIR SEA DIR/SP/G                  HT/PER
                 (UTC) (F)     (DEG/KT/KT) (MB)    (MI)  (FT/S)
SHEBOYGAN LKSHOR 1900   60      30/ 15/ 17 1022.4F
KEWAUNEE LKSHORE 1900   64      40/ 12/ 17 1023.1F
NORTHPORT PIER   1900   63      40/ 13/ 18 1025.1F
N MID LAKE BUOY  1850   62 65   40/ 17/ 21 1024.2F         4/ 5
SISTER BAY LKSHO 1908   64      80/ 10/ 16   N/A
CHAMBERS ISLAND  1900   62      30/ 16/ 19 1024.7F
MENOMINEE LKSHOR 1900   61      30/ 17/ 20 1024.3F
$$




USA.gov is the U.S. government's official web portal to all federal, state and local government web resources and services.